Date,TemperatureHighF,TemperatureAvgF,TemperatureLowF,DewpointHighF,DewpointAvgF,DewpointLowF,HumidityHigh,HumidityAvg,HumidityLow,PressureMaxIn,PressureMinIn,WindSpeedMaxMPH,WindSpeedAvgMPH,GustSpeedMaxMPH,PrecipitationSumIn
2013-3-1,27,24,21,-100,-100,-100,0,0,100,0.00,40.00,0,-999,0,0.00
2013-3-2,46,33,26,-100,-100,-100,0,0,100,0.00,40.00,0,-999,0,0.00
2013-3-3,41,34,28,-100,-100,-100,0,0,100,0.00,40.00,0,-999,0,0.00
2013-3-4,34,29,22,-100,-100,-100,0,0,100,0.00,40.00,0,-999,0,0.00
2013-3-5,23,18,11,-100,-100,-100,0,0,100,0.00,40.00,0,-999,0,0.00
2013-3-6,23,14,4,-100,-100,-100,0,0,100,0.00,40.00,0,-999,0,0.00
2013-3-7,30,24,16,-100,-100,-100,0,0,100,0.00,40.00,0,-999,0,0.00
2013-3-8,33,26,19,-100,-100,-100,0,0,100,0.00,40.00,0,-999,0,0.00
2013-3-9,33,26,18,-100,-100,-100,0,0,100,0.00,40.00,0,-999,0,0.00
2013-3-10,30,19,11,-100,-100,-100,0,0,100,0.00,40.00,0,-999,0,0.00
2013-3-11,38,26,16,-100,-100,-100,0,0,100,0.00,40.00,0,-999,0,0.00
2013-3-12,29,22,15,-100,-100,-100,0,0,100,0.00,40.00,0,-999,0,0.00
2013-3-13,49,27,12,-100,-100,-100,0,0,100,0.00,40.00,0,-999,0,0.00
2013-3-14,59,40,29,-100,-100,-100,0,0,100,0.00,40.00,0,-999,0,0.00
2013-3-15,29,19,9,-100,-100,-100,0,0,100,0.00,40.00,0,-999,0,0.00
2013-3-16,21,10,4,-100,-100,-100,0,0,100,0.00,40.00,0,-999,0,0.00
2013-3-17,27,17,11,-100,-100,-100,0,0,100,0.00,40.00,0,-999,0,0.00
2013-3-18,27,14,8,-100,-100,-100,0,0,100,0.00,40.00,0,-999,0,0.00
2013-3-19,19,13,7,-100,-100,-100,0,0,100,0.00,40.00,0,-999,0,0.00
2013-3-20,26,13,4,-100,-100,-100,0,0,100,0.00,40.00,0,-999,0,0.00
2013-3-21,26,15,5,-100,-100,-100,0,0,100,0.00,40.00,0,-999,0,0.00
2013-3-22,25,18,14,-100,-100,-100,0,0,100,0.00,40.00,0,-999,0,0.00
2013-3-23,24,20,17,-100,-100,-100,0,0,100,0.00,40.00,0,-999,0,0.00
2013-3-24,27,20,16,-100,-100,-100,0,0,100,0.00,40.00,0,-999,0,0.00
2013-3-25,27,17,7,-100,-100,-100,0,0,100,0.00,40.00,0,-999,0,0.00
2013-3-26,34,20,10,-100,-100,-100,0,0,100,0.00,40.00,0,-999,0,0.00
2013-3-27,41,25,13,-100,-100,-100,0,0,100,0.00,40.00,0,-999,0,0.00
2013-3-28,47,31,20,-100,-100,-100,0,0,100,0.00,40.00,0,-999,0,0.00
2013-3-29,48,33,23,-100,-100,-100,0,0,100,0.00,40.00,0,-999,0,0.00
2013-3-30,54,39,29,-100,-100,-100,0,0,100,0.00,40.00,0,-999,0,0.00
2013-3-31,37,30,20,-100,-100,-100,0,0,100,0.00,40.00,0,-999,0,0.00